This is the latest recevied weather packets stored in our database for station/object KD7JB. If no packets are shown the sender has not sent any weather packets the latest 10 day(s).
| Time | Temp. | Humidity | Pressure | Rain* | Wind** | Luminosity | Snow |
|---|---|---|---|---|---|---|---|
| 1777691450 | 13.89° C | 52% | 1177.6 hPa | 0 mm | - | 3 W/m² | - |
| 1777691149 | 13.89° C | 52% | 1177.5 hPa | 0 mm | - | 5 W/m² | - |
| 1777690846 | 13.89° C | 52% | 1177.4 hPa | 0 mm | - | 7 W/m² | - |
| 1777690544 | 13.89° C | 52% | 1177.4 hPa | 0 mm | - | 10 W/m² | - |
| 1777690242 | 13.89° C | 52% | 1177.6 hPa | 0 mm | - | 11 W/m² | - |
| 1777689939 | 13.89° C | 53% | 1177.5 hPa | 0 mm | - | 13 W/m² | - |
| 1777689637 | 13.89° C | 53% | 1177.4 hPa | 0 mm | - | 16 W/m² | - |
| 1777689334 | 13.89° C | 52% | 1177.5 hPa | 0 mm | - | 20 W/m² | - |
| 1777689031 | 13.89° C | 52% | 1177.3 hPa | 0 mm | - | 24 W/m² | - |
| 1777688728 | 14.44° C | 51% | 1177.4 hPa | 0 mm | - | 27 W/m² | - |
| 1777688426 | 14.44° C | 50% | 1177.4 hPa | 0 mm | - | 31 W/m² | - |
| 1777688123 | 15° C | 50% | 1177.3 hPa | 0 mm | - | 35 W/m² | - |
| 1777687820 | 15° C | 48% | 1177.5 hPa | 0 mm | - | 40 W/m² | - |
| 1777687518 | 15.56° C | 47% | 1177.5 hPa | 0 mm | - | 46 W/m² | - |
| 1777687214 | 15.56° C | 47% | 1177.4 hPa | 0 mm | - | 53 W/m² | - |
| 1777686912 | 15.56° C | 47% | 1177.4 hPa | 0 mm | - | 60 W/m² | - |
| 1777686608 | 15.56° C | 47% | 1177.4 hPa | 0 mm | - | 73 W/m² | - |
| 1777686305 | 15.56° C | 46% | 1177.5 hPa | 0 mm | - | 59 W/m² | - |
| 1777686002 | 15.56° C | 46% | 1177.5 hPa | 0 mm | - | 69 W/m² | - |
| 1777685697 | 15.56° C | 47% | 1177.5 hPa | 0 mm | - | 94 W/m² | - |
| 1777685394 | 15.56° C | 47% | 1177.5 hPa | 0 mm | - | 94 W/m² | - |
| 1777685092 | 15.56° C | 46% | 1177.6 hPa | 0 mm | - | 86 W/m² | - |
| 1777684789 | 15.56° C | 48% | 1177.4 hPa | 0 mm | - | 88 W/m² | - |
| 1777684485 | 15.56° C | 46% | 1177.5 hPa | 0 mm | - | 107 W/m² | - |
| 1777684182 | 15.56° C | 46% | 1177.8 hPa | 0 mm | - | 98 W/m² | - |
* Rain latest hour (hover to see other rain measurements)
** Current wind speed in m/s (hover to see current wind gust speed)